EDT,Max TemperatureF,Mean TemperatureF,Min TemperatureF,Max Dew PointF,MeanDew PointF,Min DewpointF,Max Humidity, Mean Humidity, Min Humidity, Max Sea Level PressureIn, Mean Sea Level PressureIn, Min Sea Level PressureIn, Max VisibilityMiles, Mean VisibilityMiles, Min VisibilityMiles, Max Wind SpeedMPH, Mean Wind SpeedMPH, Max Gust SpeedMPH,PrecipitationIn, CloudCover, Events, WindDirDegrees
2013-10-1,72,57,42,50,44,31,100,71,26,29.97,29.90,29.77,10,8,1,9,3,13,0.00,0,,317
2013-10-2,72,61,49,55,46,40,96,65,33,29.77,29.68,29.60,10,10,3,23,11,29,0.00,2,,265
2013-10-3,63,54,45,42,39,36,74,56,40,29.95,29.89,29.78,10,10,10,28,12,35,0.00,1,,286
2013-10-4,56,48,40,41,35,30,83,63,43,30.09,30.03,29.95,10,10,10,21,10,28,0.00,0,,314
2013-10-5,55,45,34,37,33,28,96,68,40,30.20,30.12,30.06,10,10,10,18,8,23,0.00,2,,305
2013-10-6,55,43,30,37,31,28,92,63,38,30.29,30.23,30.15,10,10,10,20,8,26,T,1,Rain,265
2013-10-7,64,53,42,63,49,37,100,92,71,30.15,29.89,29.63,10,7,0,31,19,44,0.52,8,Fog-Rain,166
2013-10-8,54,47,40,52,39,30,96,70,43,30.31,29.96,29.68,10,10,5,30,13,38,0.01,4,Rain,266
2013-10-9,62,49,35,40,36,32,89,64,38,30.43,30.34,30.24,10,10,10,15,7,20,0.00,0,,220
2013-10-10,70,58,45,46,41,35,80,56,39,30.25,30.19,30.14,10,10,10,14,7,17,0.00,0,,258
2013-10-11,70,58,45,51,47,40,86,69,50,30.28,30.19,30.15,10,10,10,14,4,17,0.00,2,,359
2013-10-12,56,49,41,43,42,39,93,79,59,30.42,30.37,30.29,10,10,10,9,4,14,0.00,5,,20
2013-10-13,58,47,35,44,38,33,100,82,55,30.45,30.40,30.30,10,9,1,9,4,13,0.00,2,,115
2013-10-14,52,47,41,52,46,40,100,97,89,30.29,30.22,30.18,10,2,0,10,5,14,0.14,7,Fog-Rain,194
2013-10-15,56,49,41,50,41,32,94,75,42,30.30,30.24,30.20,10,9,1,13,5,17,0.01,2,,348
2013-10-16,53,47,41,52,46,34,100,86,71,30.19,30.03,29.88,10,9,0,18,11,25,0.00,6,Fog,143
2013-10-17,60,55,49,54,50,46,100,89,62,29.86,29.73,29.67,10,6,0,20,9,26,0.07,5,Fog-Rain,201
2013-10-18,54,50,46,49,47,43,100,94,82,29.69,29.61,29.57,10,5,0,15,6,20,0.27,7,Fog-Rain,225
2013-10-19,55,49,42,43,38,35,86,69,49,29.81,29.74,29.64,10,10,10,21,10,28,T,1,,246
2013-10-20,49,44,39,46,41,32,100,87,59,29.74,29.63,29.57,10,8,2,20,10,26,0.25,7,Rain,189
2013-10-21,52,44,36,36,34,30,87,70,53,29.95,29.89,29.75,10,10,10,15,7,18,0.02,7,Rain,259
2013-10-22,50,43,36,47,41,35,100,91,82,29.93,29.74,29.58,10,8,2,23,10,30,0.24,8,Rain,156
2013-10-23,44,38,31,33,30,27,92,77,62,29.67,29.62,29.54,10,10,10,14,7,20,0.00,3,,232
2013-10-24,38,34,30,30,26,21,89,73,52,29.57,29.50,29.46,10,9,2,25,13,36,T,7,Snow,250
2013-10-25,44,37,30,35,31,28,100,83,58,29.92,29.78,29.55,10,9,0,24,10,31,0.02,6,Fog-Rain,265
2013-10-26,41,34,27,34,29,21,100,84,49,29.96,29.88,29.78,10,8,2,16,7,23,0.02,5,Snow,209
2013-10-27,43,39,34,37,35,32,96,90,76,29.82,29.73,29.67,10,10,10,14,7,17,T,8,Rain,199
2013-10-28,34,30,25,32,29,21,100,88,75,30.25,29.97,29.83,10,5,0,18,9,25,0.09,6,Fog-Snow,278
2013-10-29,31,27,23,21,19,17,85,73,59,30.37,30.32,30.26,10,10,10,15,8,21,0.00,2,,263
2013-10-30,36,28,20,22,19,16,89,73,54,30.28,30.17,30.07,10,10,10,20,7,29,0.00,3,,221
2013-10-31,46,36,25,43,31,19,96,83,65,30.14,29.89,29.62,10,7,0,18,10,26,0.36,5,Fog-Rain,170